Regional Weather Roundup
Issued by NWS Mt. Holly, NJ

Home | Current Version | Previous Version | Text Only | Print | Product List | Glossary On
Versions: 1 2 3 4 5 6 7 8 9 10 11 12 13 14 15 16 17 18 19 20 21 22 23 24 25 26 27
000
ASUS41 KPHI 261612
RWRPHI

REGIONAL WEATHER ROUNDUP
NATIONAL WEATHER SERVICE MOUNT HOLLY NJ
1200 PM EDT MON JUN 26 2017

NOTE:  "FAIR" INDICATES FEW OR NO CLOUDS BELOW 12,000 FEET WITH NO
SIGNIFICANT WEATHER AND/OR OBSTRUCTIONS TO VISIBILITY.

 * = STATION DOES NOT REPORT PRECIPITATION (E.G. RAIN, SNOW, ETC.)
        OR FOG.

NJZ015>026-261700-
SOUTHERN NEW JERSEY

CITY           SKY/WX    TMP DP  RH WIND       PRES   REMARKS
POMONA         MOSUNNY   79  48  33 SW10      30.06S
WRIGHTSTOWN    MOSUNNY   76  49  38 W13       30.06S
TRENTON        MOSUNNY   75  46  35 W10       30.05S

$$
NJZ001>014-261700-
NORTHERN NEW JERSEY

CITY           SKY/WX    TMP DP  RH WIND       PRES   REMARKS
ANDOVER*         N/A     73  50  44 W6        30.04F
MORRISTOWN     MOSUNNY   73  46  38 W10G18    30.04F
NEWARK         MOSUNNY   79  47  32 W12G21    30.02F
TETERBORO      SUNNY     75  48  38 W9        30.00

$$
PAZ043-044-047-054-055-060>062-066>071-261700-
EASTERN PENNSYLVANIA

CITY           SKY/WX    TMP DP  RH WIND       PRES   REMARKS
PHILADELPHIA   MOSUNNY   79  39  23 W12       30.06S
NORTH PHILA    MOSUNNY   79  48  34 NW8       30.07
BLUE BELL*     PTSUNNY   73  46  38 NW5       30.07S
QUAKERTOWN*    MOSUNNY   75  46  35 NW5       30.07S
PERKASIE*      FAIR      73  46  38 W6        30.07S
LANCASTER      MOSUNNY   75  48  38 VRB3      30.06F
COATESVILLE    MOSUNNY   73  50  43 VRB6      30.09S
READING        NOT AVBL
ALLENTOWN      NOT AVBL
MOUNT POCONO   NOT AVBL
HAZLETON         N/A     72  46  40 W5        30.10F
LEHIGHTON      FAIR      73  45  35 NW6       30.05F
WILKES BARRE   NOT AVBL

$$
DEZALL-MDZ008-012-015-019-020-261700-
DELAWARE AND EASTERN MARYLAND

CITY           SKY/WX    TMP DP  RH WIND       PRES   REMARKS
WILMINGTON     NOT AVBL
DOVER          SUNNY     78  55  43 W14G20    30.05F
GEORGETOWN     NOT AVBL
EASTON         MOSUNNY   81  48  32 W8        30.12S
ABERDEEN       PTSUNNY   77  47  34 W8        30.08S
PATUXENT       MOSUNNY   79  49  34 VRB3      30.08F
OCEAN CITY     SUNNY     76  59  55 SE7       30.08F
WALLOPS ISLAND MOSUNNY   81  54  39 W6        30.08F
CAMBRIDGE      SUNNY     79  46  31 NW9       30.09S
SALISBURY      SUNNY     80  52  37 N9        30.08F

$$
PAZ001-021-NYZ056-072-MDZ011-DCZ001-261700-
OTHER NEARBY LOCATIONS

CITY           SKY/WX    TMP DP  RH WIND       PRES   REMARKS
STATE COLLEGE  PTSUNNY   70  46  43 W12       30.07F
BINGHAMTON     PTSUNNY   64  48  55 NW6       30.03F
NEW YORK CITY  SUNNY     77  47  34 MISG      30.05F
BALTIMORE      PTSUNNY   77  45  32 W10       30.08S
WASHINGTON DC  MOSUNNY   80  44  27 NW10      30.09F

$$




USA.gov is the U.S. government's official web portal to all federal, state and local government web resources and services.